This demonstration page uses our WeatherBlox Daily Observations layout. Learn more.

41.55636, -103.73856

Hourly Observations for March 16, 2015

Temp ( °F °C ) Dew Point ( °F °C ) Humidity (%) Winds ( mph kmh ) Pressure ( in mb ) Visibility ( mi km ) Precip ( " mm )
12:53 am 00:53 Clear 51 10.6 30 -1.1 44 44 ENE 5 7 29.87 1012 10 16.0934 0 0
1:53 am 01:53 Clear 47 8.3 30 -1.1 52 52 E 5 7 29.87 1012 10 16.0934 0 0
2:53 am 02:53 Clear 47 8.3 31 -0.6 54 54 N 8 13 29.85 1011 10 16.0934 0 0
3:53 am 03:53 Clear 45 7.2 33 0.6 63 63 WNW 8 13 29.84 1011 10 16.0934 0 0
4:53 am 04:53 Clear 44 6.7 34 1.1 68 68 WNW 8 13 29.85 1011 10 16.0934 0 0
5:53 am 05:53 Clear 43 6.1 35 1.7 74 74 Calm 29.85 1011 10 16.0934 0 0
6:53 am 06:53 Clear 41 5 34 1.1 76 76 NNW 9 15 29.88 1012 10 16.0934 0 0
7:53 am 07:53 Sunny 45 7.2 35 1.7 68 68 WSW 8 13 29.88 1012 10 16.0934 0 0
8:53 am 08:53 Sunny 55 12.8 36 2.2 49 49 W 5 7 29.89 1012 10 16.0934 0 0
9:53 am 09:53 Sunny 66 18.9 35 1.7 32 32 WNW 8 13 29.9 1013 10 16.0934 0 0
10:53 am 10:53 Sunny 74 23.3 33 0.6 22 22 WNW 17 28 29.9 1012 10 16.0934 0 0
11:53 am 11:53 Sunny 78 25.6 27 -2.8 15 15 NW 23 37 29.9 1013 10 16.0934 0 0
12:53 pm 12:53 Sunny 78 25.6 30 -1.1 17 17 NNW 22 35 29.9 1013 10 16.0934 0 0
1:53 pm 13:53 Sunny 78 25.6 32 0 19 19 N 24 39 29.92 1013 10 16.0934 0 0
2:53 pm 14:53 Sunny 78 25.6 33 0.6 19 19 NNE 21 33 29.93 1014 10 16.0934 0 0
3:53 pm 15:53 Sunny 73 22.8 37 2.8 27 27 NNE 25 41 29.99 1016 10 16.0934 0 0
4:53 pm 16:53 Sunny 68 20 37 2.8 32 32 NNE 28 44 30.05 1018 10 16.0934 0 0
5:53 pm 17:53 Sunny 57 13.9 36 2.2 45 45 NNE 25 41 30.14 1021 10 16.0934 0 0
6:53 pm 18:53 Sunny 51 10.6 35 1.7 54 54 NE 15 24 30.23 1024 10 16.0934 0 0
7:53 pm 19:53 Clear 48 8.9 35 1.7 61 61 NNE 18 30 30.27 1025 10 16.0934 0 0
8:53 pm 20:53 Clear 42 5.6 33 0.6 71 71 NNE 13 20 30.32 1027 10 16.0934 0 0
9:53 pm 21:53 Mostly Cloudy 41 5 33 0.6 73 73 NE 8 13 30.34 1027 10 16.0934 0 0
10:53 pm 22:53 Cloudy 39 3.9 32 0 76 76 NE 15 24 30.34 1028 10 16.0934 0 0
11:18 pm 23:18 Cloudy 39 4 32 0 75 75 NE 15 24 30.45 1031 10 16.0934 0 0
11:53 pm 23:53 Cloudy 38 3.3 31 -0.6 76 76 NNE 13 20 30.36 1028 10 16.0934 0 0

Powered by AerisWeather